Location: *
(49.6619°S, 177.4603°W)
Time: 05:30:59
(UTC+00:00)

Cosmos 2227 - Pass Details

Date: 31 January 2023
Orbit: 833 x 862 km, 71.0° (Epoch: 01 April)

Event Time Altitude Azimuth Distance (km) Brightness Sun altitude
Rises 08:49:51 0° 343° (NNW) 3,418 7.1 -10.5°
Reaches altitude 10° 08:52:19 10° 346° (NNW) 2,486 6.4 -10.8°
Maximum altitude 08:57:58 66° 66° (ENE) 936 4.2 -11.5°
Drops below altitude 10° 09:03:39 10° 147° (SSE) 2,494 6.8 -12.1°
Sets 09:06:07 0° 149° (SSE) 3,432 7.6 -12.4°
